This demonstration page uses our WeatherBlox Daily Observations layout. Learn more.

Left ArrowRight Arrow

36.17497, -115.13722

Hourly Observations for September 25, 2016

Temp ( °F °C ) Dew Point ( °F °C ) Humidity (%) Winds ( mph kmh ) Pressure ( in mb ) Visibility ( mi km ) Precip ( " mm )
12:53 am 00:53 Clear 73 22.8 29 -1.7 19 19 ESE 12 19 30.14 1021 10 16.0934 0 0
1:53 am 01:53 Clear 71 21.7 32 0 24 24 E 7 11 30.16 1021 10 16.0934 0 0
2:53 am 02:53 Clear 70 21.1 32 0 25 25 VRB 3 6 30.19 1022 10 16.0934 0 0
3:53 am 03:53 Clear 70 21.1 32 0 25 25 E 6 9 30.18 1022 10 16.0934 0 0
4:53 am 04:53 Clear 70 21.1 29 -1.7 22 22 NNE 8 13 30.2 1023 10 16.0934 0 0
5:53 am 05:53 Clear 69 20.6 30 -1.1 23 23 NE 8 13 30.22 1024 10 16.0934 0 0
6:53 am 06:53 Sunny 68 20 31 -0.6 25 25 E 3 6 30.25 1025 10 16.0934 0 0
7:53 am 07:53 Sunny 71 21.7 33 0.6 25 25 ENE 3 6 30.26 1025 10 16.0934 0 0
8:53 am 08:53 Sunny 74 23.3 31 -0.6 20 20 NNE 7 11 30.27 1025 10 16.0934 0 0
9:53 am 09:53 Sunny 78 25.6 31 -0.6 18 18 E 6 9 30.27 1025 10 16.0934 0 0
10:53 am 10:53 Sunny 81 27.2 30 -1.1 16 16 E 17 28 30.26 1025 10 16.0934 0 0
11:53 am 11:53 Sunny 82 27.8 29 -1.7 14 14 E 20 31 30.23 1024 10 16.0934 0 0
12:53 pm 12:53 Sunny 84 28.9 29 -1.7 13 13 E 14 22 30.19 1022 10 16.0934 0 0
1:53 pm 13:53 Sunny 87 30.6 27 -2.8 11 11 ENE 17 28 30.15 1021 10 16.0934 0 0
2:53 pm 14:53 Sunny 88 31.1 26 -3.3 10 10 ENE 20 31 30.14 1021 10 16.0934 0 0
3:53 pm 15:53 Sunny 88 31.1 26 -3.3 10 10 ENE 15 24 30.11 1020 10 16.0934 0 0
4:53 pm 16:53 Sunny 89 31.7 27 -2.8 11 11 NE 15 24 30.09 1019 10 16.0934 0 0
5:53 pm 17:53 Sunny 87 30.6 28 -2.2 12 12 E 10 17 30.08 1019 10 16.0934 0 0
6:53 pm 18:53 Clear 83 28.3 27 -2.8 13 13 ESE 7 11 30.1 1019 10 16.0934 0 0
7:53 pm 19:53 Clear 78 25.6 27 -2.8 15 15 E 7 11 30.13 1020 10 16.0934 0 0
8:53 pm 20:53 Clear 78 25.6 29 -1.7 16 16 NNW 3 6 30.14 1021 10 16.0934 0 0
9:53 pm 21:53 Clear 77 25 28 -2.2 16 16 E 8 13 30.15 1021 10 16.0934 0 0
10:53 pm 22:53 Clear 76 24.4 29 -1.7 18 18 NE 3 6 30.15 1021 10 16.0934 0 0
11:53 pm 23:53 Clear 79 26.1 25 -3.9 14 14 VRB 7 11 30.14 1021 10 16.0934 0 0

Powered by AerisWeather